User: anonymous
Location: Albany
(35.0000°S, 118.0000°E)
Time: 06:42:34
(UTC-04:00)
Language:

ADEOS Rocket - Orbit

View from above orbital plane
View from above orbital plane
View from above satellite
View from above satellite

Ground track
Ground track

The orbit data is extracted from the following two-line orbital elements,

1 24279U 96046C   14208.17778236 -.00000041  00000-0 -88666-5 0  6932
2 24279 098.7449 270.8075 0301251 103.0031 316.4103 13.46988548882075
Epoch (UTC): 27 July 2014 04:16:00
Eccentricity: 0.0301251
inclination: 98.7449°
perigee height: 858 km
apogee height: 1308 km
right ascension of ascending node: 270.8075°
argument of perigee: 103.0031°
revolutions per day: 13.46988548
mean anomaly at epoch: 316.4103°
orbit number at epoch: 88207

The dashed part of the orbit path shows where the satellite is in the earth's shadow,  

DLR